Location: Corrales
(35.2378°N, 106.6067°W)
Time: 04:42:21
(UTC+00:00)

Daily predictions for brighter satellites

Satellite Brightness Start Highest point End
(mag) Time Altitude Azimuth Time Altitude Azimuth Time Altitude Azimuth
Envisat 3.9 00:19:59 10° SE 00:24:09 26° ENE 00:28:19 10° NNE
Meteor 2-2 Rocket 4.5 00:20:50 10° S 00:26:33 53° E 00:32:12 10° NNE
Cosmos 2221 2.5 00:22:28 10° S 00:26:44 85° E 00:31:04 10° N
Okean-O 3.3 00:24:05 10° SE 00:28:04 34° ENE 00:32:04 10° N
IRS-1C Rocket 4.1 00:23:58 10° SSE 00:29:14 79° ENE 00:34:31 10° N
CZ-3 Stage 3 3.2 00:26:52 10° WSW 00:29:54 26° S 00:31:37 10° ESE
Starlink Launch 2 Placeholder 4.4 00:27:40 10° WNW 00:29:54 31° SW 00:32:08 10° SSE
Cosmos 1356 Rocket 4.2 00:28:41 10° SSE 00:32:19 31° E 00:36:01 10° NNE
Cosmos 1842 Rocket 4.4 00:28:04 10° SSW 00:32:27 56° W 00:36:53 10° N
Cosmos 1408 4.4 00:32:29 10° NNW 00:35:48 36° W 00:39:06 10° SSW
Meteor 1-27 4.3 00:31:39 10° S 00:37:16 88° WNW 00:42:59 10° N
Lacrosse 4 Rocket 2.6 00:34:24 10° SSE 00:37:39 23° ESE 00:40:53 10° NE
BREEZE-M DEB (TANK) 3.1 00:30:16 10° SW 00:39:39 81° SSE 00:43:00 11° ENE
CZ-3C R/B 3.5 00:36:48 10° SW 00:40:03 14° SSW 00:42:28 10° SSE
ERBS 2.7 00:37:46 10° SSW 00:40:55 42° SE 00:43:54 11° NE
SeaSat 1 2.8 00:38:57 10° SE 00:43:35 43° ENE 00:48:13 10° N
OE (NEXTSAT) 4.5 00:41:36 10° NW 00:45:01 54° NNE 00:48:25 10° ESE
SKYMED 2 4.0 00:42:54 10° NNE 00:47:01 41° E 00:51:07 10° S
Feng Yun 1-1 Rocket 4.5 00:43:18 10° S 00:48:59 78° WSW 00:54:33 10° NNW
AQUARIUS 4.2 00:44:47 10° SSE 00:49:17 85° WSW 00:53:48 10° NNW
Cosmos 1697 Rocket 3.3 00:48:45 10° SSE 00:53:49 35° ESE 00:58:55 10° NE
NOSS 2-3 (E) 4.4 00:50:19 10° S 00:54:02 30° ESE 00:57:04 15° ENE
Meteor 2-3 Rocket 4.1 00:49:29 10° NNW 00:55:16 72° W 01:00:58 10° S
USA 229 DEB 3.8 00:49:09 10° SW 00:55:39 78° WNW 01:02:26 10° NNE
USA 229 3.8 00:49:15 10° SW 00:55:46 79° WNW 01:02:32 10° NNE
Cosmos 1825 4.4 00:53:19 10° NNW 00:56:36 29° W 00:59:52 10° SSW
CZ-4 R/B 2.2 00:53:02 10° SE 00:56:40 29° ENE 01:00:17 10° NNE
YAOGAN 3 4.5 00:53:02 10° SSE 00:57:21 71° ENE 01:01:42 10° N
Cosmos 1680 Rocket 4.3 00:53:19 10° SSE 00:57:46 29° E 01:01:51 12° NE
Cosmos 1869 3.2 00:54:38 10° S 00:58:36 89° WNW 01:02:33 10° N
Cosmos 1805 Rocket 3.6 00:54:30 10° N 00:58:47 54° E 01:03:04 10° SSE
NOSS 3-1 (A) 3.2 00:55:46 10° SSW 01:01:01 65° ESE 01:06:56 10° NE
NOSS 3-1 (C) 3.4 00:56:59 10° SW 01:02:20 74° WNW 01:08:23 10° NNE
NOSS 2-3 (D) 4.2 00:59:30 10° S 01:03:22 35° ESE 01:05:58 19° ENE
ATLAS 5 CENTAUR R/B 2.9 01:00:27 10° NNW 01:06:01 39° NE 01:12:15 10° ESE
Cosmos 1633 2.9 01:13:12 10° N 01:16:41 42° E 01:20:08 10° SSE
NOAA 12 4.4 01:14:33 10° S 01:19:50 69° WSW 01:25:10 10° NNW
Cosmos 923 Rocket 3.9 01:16:24 10° S 01:21:36 71° ESE 01:26:47 10° NNE
CZ-3 Stage 3 3.4 01:18:28 10° W 01:23:13 21° SW 01:25:30 10° SSE
GPS 2-04 Rocket1 4.4 01:22:56 10° S 01:24:58 15° SSE 01:25:00 15° SSE
IUS-18 SRM-1 4.0 01:21:49 10° W 01:27:47 27° SSW 01:29:44 15° SSE
YAOGAN 6 2.3 01:24:30 10° SSE 01:28:01 85° ENE 01:31:31 10° N
Cosmos 1633 Rocket 3.2 01:25:14 10° N 01:29:31 49° E 01:33:47 10° SSE
CSL-04 Debris 4.1 01:25:56 10° SSE 01:31:20 62° ENE 01:36:45 10° N
Cosmos 1656 4.3 01:26:13 10° SW 01:31:40 56° WNW 01:37:06 10° NNE
COSMO-SKYMED 1 3.4 01:30:47 10° N 01:35:00 51° WNW 01:39:12 10° SSW
Cosmos 1515 Rocket 4.5 01:33:38 10° SSE 01:36:22 30° SE 01:36:22 30° SE
Cosmos 1666 Rocket 3.4 01:35:04 10° N 01:39:28 83° E 01:43:47 10° S
Cosmos 1328 Rocket 3.4 01:35:49 10° S 01:40:13 73° E 01:42:59 22° NNE
NOSS 2-3 (C) 3.5 01:37:00 10° SSW 01:41:15 85° WNW 01:43:08 35° NNE
Cosmos 2219 3.9 01:37:34 10° NNW 01:43:02 54° WSW 01:48:28 10° S
Cosmos 1464 Rocket 3.9 01:38:17 10° N 01:44:27 86° W 01:50:34 10° S
Sich 1 3.6 01:40:37 10° NNW 01:44:53 59° W 01:49:11 10° S
Cosmos 1891 Rocket 4.5 01:38:42 10° N 01:45:05 85° W 01:51:17 10° S
Cosmos 2084 3.8 01:42:09 10° NW 01:46:21 63° WSW 01:49:08 20° SSE
Cosmos 1151 Rocket 2.9 01:43:58 10° S 01:48:17 83° E 01:50:00 37° NNE
CSL-04 Rocket 3.6 01:45:55 10° SSE 01:51:20 87° WSW 01:56:41 10° NNW
Cosmos 1862 3.4 01:49:32 10° N 01:53:29 74° W 01:57:27 10° S
H-II Stage 2 4.4 00:54:44 10° WSW 01:55:28 53° S 01:59:21 32° ESE
Cosmos 1980 Rocket 2.1 01:51:22 10° S 01:56:58 69° ESE 01:58:13 52° NE
YAOGAN 1 2.9 01:54:16 10° S 01:58:32 64° WSW 02:02:50 10° NNW
Cosmos 2227 Rocket 2.7 01:59:28 10° NNW 02:05:03 60° WSW 02:10:34 10° S
Cosmos 2297 Rocket 2.9 01:59:56 10° NNW 02:05:26 54° WSW 02:10:54 10° S
Lacrosse 4 Rocket 3.4 02:12:51 10° WSW 02:16:12 24° WNW 02:17:24 21° NNW
ATLAS 5 CENTAUR R/B 4.0 02:18:14 10° SW 02:23:48 32° SSE 02:26:50 29° SE
Cosmos 2082 4.1 02:26:07 10° NNW 02:31:37 58° WSW 02:32:39 50° SSW
CZ-4 R/B 4.2 02:28:45 10° SW 02:31:40 18° W 02:34:35 10° NW
USA 215 4.0 02:34:11 38° N 02:34:11 38° N 02:38:43 10° NNW
Cosmos 1697 Rocket 4.5 02:33:00 10° WSW 02:37:47 28° WNW 02:41:03 17° NNW
ATLAS 5 CENTAUR R/B 3.8 02:45:06 10° NW 02:50:45 37° WSW 02:54:35 21° SSW
H-2A R/B 4.1 02:43:05 10° W 03:26:24 64° SSW 03:26:46 64° SSW
Centaur D AC-28 4.1 10:27:03 28° ESE 10:27:03 28° ESE 10:31:50 10° E
Lacrosse 5 4.4 10:33:31 15° NE 10:33:31 15° NE 10:34:24 10° NE
Cosmos 1980 Rocket 4.5 10:49:53 11° NNE 10:53:32 20° ENE 10:57:34 10° ESE
SJ 16-02 4.3 10:53:08 10° SE 10:55:34 15° E 10:58:01 10° ENE
Cosmos 839 Rocket 4.3 11:05:42 54° SSW 11:07:34 80° ESE 11:14:06 10° NNE
Cosmos 2369 4.3 11:10:46 46° NNE 11:12:02 55° ENE 11:17:38 10° SE
OAO 3 Rocket 4.1 11:16:22 46° ESE 11:16:22 46° ESE 11:20:03 10° E
PAYLOAD A 4.2 11:11:19 10° NNE 11:23:24 - S 11:16:20 73° ENE
OAO 2 Rocket 3.6 11:22:09 66° ESE 11:22:09 66° ESE 11:26:36 10° E
Milstar 3 4.1 11:27:38 30° SW 11:28:36 31° SSW 11:34:49 10° SSE
Milstar 3 Cent rocket 4.5 11:29:53 26° SW 11:30:11 26° SW 11:36:04 10° SSE
Cosmos 2278 4.2 11:29:02 25° N 11:32:19 59° ENE 11:37:55 10° SE
MSX 4.4 11:28:09 10° N 11:31:57 40° NNW 11:31:57 40° NNW
STARLINK-48 4.3 11:34:43 48° ESE 11:34:43 48° ESE 11:38:05 10° NE
Cosmos 1697 Rocket 2.7 11:32:26 43° N 11:34:21 80° ENE 11:39:57 10° SSE
Atlas Centaur 2 3.2 11:37:36 18° SSE 11:37:36 18° SSE 11:39:05 10° SE
CZ-4B R/B 4.2 11:33:03 10° NNE 11:37:33 74° ESE 11:42:00 10° S
Cosmos 990 Rocket 4.3 11:39:23 10° S 11:44:27 65° ESE 11:49:35 10° NNE
ISS -2.6 11:47:21 40° SE 11:47:21 40° SE 11:49:38 10° SE
Cosmos 2082 Rocket 2.5 11:52:33 43° NW 11:52:33 43° NW 11:57:41 10° N
Cosmos 923 Rocket 3.9 11:49:55 23° NNW 11:53:15 87° ENE 11:58:28 10° SSE
Cosmos 2058 3.0 11:49:20 10° S 11:53:32 77° E 11:57:44 10° N
Cosmos 1076 Rocket 3.3 11:50:41 10° SSW 11:55:02 73° W 11:59:23 10° N
CZ-3B R/B 3.9 11:57:24 10° S 11:58:36 11° S 11:59:39 10° SSE
